| time (UTC) | temp F | wind direction | speed MPH | gust MPH | rain 1hr in | rain 24hr in | rain mn in | humidity % | barometer mb |
| 20260504034529 | 60 | 342 | 13.0 | 19.0 | 0.00 | 0.00 | 0.00 | 38 | 1004.0 |
| 20260504033029 | 61 | 356 | 15.0 | 23.0 | 0.00 | 0.00 | 0.00 | 38 | 1003.8 |
| 20260504031529 | 62 | 348 | 18.0 | 27.0 | 0.00 | 0.00 | 0.00 | 37 | 1003.5 |
| 20260504030030 | 64 | 343 | 24.0 | 34.0 | 0.00 | 0.00 | 0.00 | 35 | 1002.8 |
| 20260504024533 | 67 | 293 | 23.0 | 30.0 | 0.00 | 0.00 | 0.00 | 32 | 1001.9 |
| 20260504023026 | 67 | 287 | 15.0 | 23.0 | 0.00 | 0.00 | 0.00 | 32 | 1001.6 |
| 20260504021526 | 68 | 296 | 20.0 | 29.0 | 0.00 | 0.00 | 0.00 | 31 | 1001.5 |
| 20260504020024 | 69 | 290 | 19.0 | 26.0 | 0.00 | 0.00 | 0.00 | 31 | 1001.4 |
| 20260504014522 | 69 | 281 | 23.0 | 30.0 | 0.00 | 0.00 | 0.00 | 30 | 1001.4 |
| 20260504013033 | 70 | 309 | 23.0 | 32.0 | 0.00 | 0.00 | 0.00 | 30 | 1001.5 |
| 20260504011521 | 71 | 296 | 31.0 | 37.0 | 0.00 | 0.00 | 0.00 | 29 | 1001.7 |
| 20260504010020 | 72 | 281 | 23.0 | 32.0 | 0.00 | 0.00 | 0.00 | 26 | 1001.6 |
| 20260504004519 | 73 | 292 | 24.0 | 33.0 | 0.00 | 0.00 | 0.00 | 23 | 1001.6 |
| 20260504003034 | 73 | 270 | 28.0 | 38.0 | 0.00 | 0.00 | 0.00 | 23 | 1001.5 |
| 20260504001516 | 74 | 276 | 23.0 | 37.0 | 0.00 | 0.00 | 0.00 | 22 | 1001.7 |
| 20260504000014 | 74 | 280 | 27.0 | 38.0 | 0.00 | 0.00 | 0.00 | 22 | 1001.8 |
| 20260503234512 | 74 | 277 | 28.0 | 34.0 | 0.00 | 0.00 | 0.00 | 21 | 1001.9 |
| 20260503233009 | 75 | 282 | 27.0 | 36.0 | 0.00 | 0.00 | 0.00 | 21 | 1002.1 |
| 20260503231507 | 75 | 259 | 26.0 | 38.0 | 0.00 | 0.00 | 0.00 | 22 | 1002.2 |
| 20260503230007 | 74 | 257 | 24.0 | 35.0 | 0.00 | 0.00 | 0.00 | 24 | 1002.4 |
| 20260503224502 | 75 | 255 | 29.0 | 37.0 | 0.00 | 0.00 | 0.00 | 24 | 1002.9 |
| 20260503223059 | 74 | 250 | 24.0 | 34.0 | 0.00 | 0.00 | 0.00 | 26 | 1003.3 |
| 20260503221559 | 74 | 258 | 24.0 | 40.0 | 0.00 | 0.00 | 0.00 | 25 | 1003.6 |
| 20260503220054 | 73 | 266 | 28.0 | 36.0 | 0.00 | 0.00 | 0.00 | 24 | 1004.0 |
| 20260503214550 | 72 | 262 | 23.0 | 31.0 | 0.00 | 0.00 | 0.00 | 23 | 1004.4 |
| 20260503213049 | 72 | 254 | 23.0 | 34.0 | 0.00 | 0.00 | 0.00 | 23 | 1004.9 |
| 20260503211546 | 72 | 265 | 24.0 | 31.0 | 0.00 | 0.00 | 0.00 | 24 | 1005.1 |
| 20260503210043 | 72 | 250 | 25.0 | 32.0 | 0.00 | 0.00 | 0.00 | 28 | 1005.4 |
| 20260503204540 | 71 | 270 | 25.0 | 33.0 | 0.00 | 0.00 | 0.00 | 29 | 1005.6 |
| 20260503203043 | 71 | 250 | 24.0 | 31.0 | 0.00 | 0.00 | 0.00 | 29 | 1005.8 |
| 20260503201537 | 71 | 240 | 25.0 | 32.0 | 0.00 | 0.00 | 0.00 | 29 | 1006.0 |
| 20260503200035 | 71 | 250 | 22.0 | 31.0 | 0.00 | 0.00 | 0.00 | 28 | 1006.1 |
| 20260503194531 | 71 | 268 | 19.0 | 32.0 | 0.00 | 0.00 | 0.00 | 28 | 1006.5 |
| 20260503193028 | 71 | 274 | 25.0 | 32.0 | 0.00 | 0.00 | 0.00 | 28 | 1007.3 |
| 20260503191526 | 70 | 280 | 22.0 | 31.0 | 0.00 | 0.00 | 0.00 | 29 | 1007.5 |
| 20260503190025 | 70 | 262 | 24.0 | 32.0 | 0.00 | 0.00 | 0.00 | 31 | 1007.7 |
| 20260503184521 | 71 | 254 | 25.0 | 32.0 | 0.00 | 0.00 | 0.00 | 30 | 1008.1 |
| 20260503183017 | 70 | 229 | 18.0 | 34.0 | 0.00 | 0.00 | 0.00 | 33 | 1008.4 |
| 20260503181513 | 69 | 258 | 27.0 | 33.0 | 0.00 | 0.00 | 0.00 | 32 | 1008.9 |
| 20260503180009 | 68 | 240 | 26.0 | 37.0 | 0.00 | 0.00 | 0.00 | 34 | 1009.2 |
| 20260503174507 | 68 | 240 | 24.0 | 34.0 | 0.00 | 0.00 | 0.00 | 34 | 1009.7 |
| 20260503173005 | 67 | 240 | 21.0 | 31.0 | 0.00 | 0.00 | 0.00 | 35 | 1009.8 |
| 20260503171613 | 67 | 219 | 23.0 | 32.0 | 0.00 | 0.00 | 0.00 | 35 | 1010.0 |
| 20260503170105 | 67 | 255 | 21.0 | 33.0 | 0.00 | 0.00 | 0.00 | 35 | 1010.1 |
| 20260503081603 | 45 | 256 | 7.0 | 10.0 | 0.00 | 0.00 | 0.00 | 56 | 1014.7 |
| 20260503080109 | 46 | 245 | 7.0 | 9.0 | 0.00 | 0.00 | 0.00 | 55 | 1014.6 |
| 20260503071607 | 46 | 235 | 4.0 | 6.0 | 0.00 | 0.00 | 0.00 | 54 | 1014.7 |
| 20260503054553 | 48 | 284 | 3.0 | 4.0 | 0.00 | 0.00 | 0.00 | 49 | 1015.0 |
| 20260503053040 | 48 | 284 | 2.0 | 4.0 | 0.00 | 0.00 | 0.00 | 50 | 1014.9 |
| 20260503051538 | 48 | 284 | 2.0 | 3.0 | 0.00 | 0.00 | 0.00 | 49 | 1015.0 |
| 20260503050044 | 49 | 284 | 2.0 | 4.0 | 0.00 | 0.00 | 0.00 | 49 | 1015.1 |
| 20260503044548 | 49 | 285 | 3.0 | 4.0 | 0.00 | 0.00 | 0.00 | 48 | 1015.2 |
| 20260503043044 | 50 | 323 | 2.0 | 3.0 | 0.00 | 0.00 | 0.00 | 47 | 1015.2 |
| 20260503041535 | 50 | 7 | 2.0 | 4.0 | 0.00 | 0.00 | 0.00 | 47 | 1015.1 |
| 20260503040039 | 51 | 7 | 2.0 | 3.0 | 0.00 | 0.00 | 0.00 | 46 | 1015.1 |